Regional Weather Roundup
Issued by NWS

Home | Current Version | Previous Version | Graphics & Text | Print | Product List | Glossary On
Versions: 1 2 3 4 5 6 7 8 9 10 11 12 13 14 15 16 17 18 19 20 21 22 23 24 25 26 27
000
ASUS45 KBOU 202206
RWRCO

WEATHER ROUNDUP FOR COLORADO
NATIONAL WEATHER SERVICE DENVER/BOULDER CO
400 PM MDT SUN APR 20 2014

NOTE: "FAIR" INDICATES FEW OR NO CLOUDS BELOW 12000 FEET WITH NO
SIGNIFICANT WEATHER AND/OR OBSTRUCTIONS TO VISIBILITY.

COZ001>005-013-030-031-202300-
...NORTHWEST COLORADO...

CITY           SKY/WX    TMP DP  RH WIND       PRES   REMARKS
CRAIG          LGT RAIN  54  42  64 NE7       30.21F
HAYDEN         CLOUDY    46  39  76 NW17G26   30.26R
MEEKER         PTSUNNY   65  34  31 N18       30.16R
MOUNT WERNER   CLOUDY    46  27  46 NW7       30.34R
STEAMBOAT SPGS CLOUDY    53  31  43 W29G39    30.18R
WALDEN         PTSUNNY   54  27  35 N3        30.19F
$$

COZ006>008-011-202300-
...WEST CENTRAL VALLEYS...

CITY           SKY/WX    TMP DP  RH WIND       PRES   REMARKS
GRAND JUNCTION PTSUNNY   71  35  26 NE7       30.08F
MONTROSE       MOSUNNY   72  30  21 NW12G20   30.11F
EAGLE          MOSUNNY   64  30  27 CALM      30.13F
RIFLE          PTSUNNY   70  35  27 W22       30.07F
DELTA          PTSUNNY   76  34  21 E9        30.06S
NUCLA            N/A     68  32  26 N15G22    30.16F
$$

COZ017>023-064>068-202300-
...SOUTHWEST COLORADO...

CITY           SKY/WX    TMP DP  RH WIND       PRES   REMARKS
DURANGO        MOSUNNY   70  22  16 W8        30.07F
CORTEZ         MOSUNNY   71  27  19 NW17      30.09F
PAGOSA SPRINGS PTSUNNY   66  19  16 N6        30.12F
TELLURIDE      PTSUNNY   54  23  30 N6        30.24F
WOLF CREEK PAS MOSUNNY   39  21  48 N7        30.34F
$$

COZ009-010-012-014-032>034-037-058>063-202300-
...CENTRAL COLORADO...

CITY           SKY/WX    TMP DP  RH WIND       PRES   REMARKS
ASPEN          PTSUNNY   56  30  37 VRB6      30.18S
BUENA VISTA    MOSUNNY   62  22  21 NW8       30.14F
COPPER MTN     PTSUNNY   41  27  56 W14G21    30.37F
BERTHOUD PASS  LGT SNOW  30  19  64 N7G22     30.39R WCI  23
COTTONWOOD PAS CLOUDY    54  23  30 CALM      30.25S
GUNNISON       PTSUNNY   61  25  25 NW14      30.17F
KREMMLING      PTSUNNY   61  21  21 NW9       30.16S
LEADVILLE      CLOUDY    43  25  49 N10       30.27R
SALIDA         MOSUNNY   65  28  24 N5        30.19S
SUNLIGHT       PTSUNNY   45  27  49 CALM      30.34F
WILKERSON PASS CLOUDY    36  30  80 CALM      30.34F
$$

COZ069>075-202300-
...SAN LUIS VALLEY/SANGRE DE CRISTO MOUNTAINS...

CITY           SKY/WX    TMP DP  RH WIND       PRES   REMARKS
ALAMOSA        MOSUNNY   63  26  24 NW12      30.09F
LA VETA PASS   CLOUDY    41  36  81 CALM      30.27R THUNDER
SAGUACHE       MOSUNNY   63  32  31 NW13G22   30.13F
$$

COZ035-036-038>040-202300-
...NORTHERN COLORADO FRONT RANGE...

CITY           SKY/WX    TMP DP  RH WIND       PRES   REMARKS
DENVER INTL AP PTSUNNY   73  36  25 N10       30.02F
DMNS CITY PARK   N/A     70  34  26 NW9       30.03S
AURORA         PTSUNNY   70  34  26 N7        30.04F
FRONT RANGE AP NOT AVBL
ERIE MUNI ARPT MOSUNNY   70  37  29 NW7       30.02S
BOULDER MUN AP MOSUNNY   70  36  28 N3        30.03S
CENTENNIAL     MOSUNNY   69  32  25 N12       30.05F
BROOMFIELD     PTSUNNY   70  36  28 W3        30.05F
FORT COLLINS   PTSUNNY   73  39  29 E20       30.01F
LONGMONT       PTSUNNY   71  34  25 SW7       30.02F
$$

COZ041-046-047-076>085-087-088-202300-
...PIKES PEAK/PALMER DIVIDE AND SOUTHERN FOOTHILLS...

CITY           SKY/WX    TMP DP  RH WIND       PRES   REMARKS
COLO. SPRINGS  PTSUNNY   69  32  25 N20       30.06F
A. F. ACADEMY  PTSUNNY   64  29  26 NW13      30.08S
ELLICOTT       NOT AVBL
FALCON         MOSUNNY   65  30  26 N10G25    30.10F
FORT CARSON    PTSUNNY   69  34  27 NE7       30.03F
LIMON          MOSUNNY   70  34  26 N12G23    30.01F
MONUMENT HILL  MOSUNNY   59  32  36 N8G18     30.10F
TRINIDAD       PTSUNNY   63  40  42 VRB6      30.05F
$$

COZ042>045-048>051-090-091-202300-
...NORTHEAST COLORADO...

CITY           SKY/WX    TMP DP  RH WIND       PRES   REMARKS
GREELEY ARPT   PTSUNNY   63  45  51 E12       30.02S
AKRON          MOSUNNY   73  34  23 N10       29.98F
BURLINGTON     CLOUDY    71  44  37 NE10G17   29.96F
WRAY           PTSUNNY   71  45  39 CALM      29.96F
STERLING       MOSUNNY   77  41  27 W9        29.93F
HOLYOKE        PTSUNNY   77  43  29 SE7       29.95F
FORT MORGAN    PTSUNNY   62  42  48 SW15G21   30.02F
$$

COZ086-089-092>099-202300-
...SOUTHEAST COLORADO...

CITY           SKY/WX    TMP DP  RH WIND       PRES   REMARKS
PUEBLO         MOSUNNY   74  32  21 N8        29.97F
LA JUNTA       CLOUDY    65  48  54 SE12      29.97F
LAMAR          PTSUNNY   70  48  45 W5        29.90F
SPRINGFIELD      N/A     64  44  48 S12       29.97R
$$



USA.gov is the U.S. government's official web portal to all federal, state and local government web resources and services.